DW9584 Weather Reports


Display with metric or nautical units.
time (UTC)temp
F
wind
direction
speed
MPH
gust
MPH
rain 1hr
in
rain 24hr
in
rain mn
in
humidity
%
barometer
mb
20190625081046 73 45 0.0 1.0 0.00 0.00 0.00 93 1008.3
20190625080543 73 46 0.0 1.0 0.00 0.00 0.00 93 1008.3
20190625080128 73 97 0.0 1.0 0.00 0.00 0.00 93 1008.3
20190625075544 73 97 0.0 0.0 0.00 0.00 0.00 93 1008.3
20190625075041 73 97 0.0 1.0 0.00 0.00 0.00 93 1008.4
20190625074609 73 97 0.0 1.0 0.00 0.00 0.00 93 1008.5
20190625074040 73 107 0.0 1.0 0.00 0.00 0.00 93 1008.6
20190625073544 73 107 0.0 1.0 0.00 0.00 0.00 93 1008.7
20190625073044 73 118 0.0 0.0 0.00 0.00 0.00 93 1008.7
20190625072538 73 118 0.0 0.0 0.00 0.00 0.00 93 1008.8
20190625072043 73 118 0.0 1.0 0.00 0.00 0.00 93 1008.9
20190625071558 73 118 0.0 1.0 0.00 0.00 0.00 93 1008.9
20190625071036 73 86 0.0 1.0 0.00 0.00 0.00 93 1008.9
20190625070539 73 86 0.0 1.0 0.00 0.00 0.00 93 1008.9
20190625070053 73 122 0.0 1.0 0.00 0.00 0.00 93 1008.8
20190625065538 73 123 0.0 1.0 0.00 0.00 0.00 93 1009.0
20190625065035 73 122 0.0 1.0 0.00 0.00 0.00 93 1009.0
20190625064557 73 122 0.0 0.0 0.00 0.00 0.00 93 1009.1
20190625064034 73 12 0.0 0.0 0.00 0.00 0.00 93 1009.2
20190625063533 73 12 0.0 1.0 0.00 0.00 0.00 94 1009.2
20190625063123 74 11 0.0 1.0 0.00 0.00 0.00 93 1009.2
20190625062533 74 11 0.0 1.0 0.00 0.00 0.00 94 1009.1
20190625062042 74 11 0.0 1.0 0.00 0.00 0.00 94 1009.2
20190625061553 74 95 0.0 2.0 0.00 0.00 0.00 94 1009.2
20190625061034 73 82 0.0 2.0 0.00 0.00 0.00 94 1009.2
20190625060537 74 90 0.0 0.0 0.00 0.00 0.00 94 1009.2
20190625060053 73 91 0.0 0.0 0.00 0.00 0.00 93 1009.1
20190625055533 74 90 0.0 0.0 0.00 0.00 0.00 94 1009.2
20190625055039 74 91 0.0 0.0 0.00 0.00 0.00 93 1009.2
20190625054647 74 91 0.0 0.0 0.00 0.00 0.00 93 1009.2
20190625054033 74 91 0.0 0.0 0.00 0.00 0.00 93 1009.2
20190625053531 74 90 0.0 0.0 0.00 0.00 0.00 93 1009.1
20190625053138 74 90 0.0 1.0 0.00 0.00 0.00 93 1009.2
20190625052541 74 91 0.0 1.0 0.00 0.00 0.00 93 1009.1
20190625052030 74 97 0.0 0.0 0.00 0.00 0.00 93 1009.2
20190625051541 74 97 0.0 1.0 0.00 0.00 0.00 93 1009.3
20190625051029 74 97 0.0 1.0 0.00 0.00 0.00 92 1009.3
20190625050528 74 98 0.0 0.0 0.00 0.00 0.00 92 1009.3
20190625050105 74 97 0.0 0.0 0.00 0.00 0.00 92 1009.3
20190625045528 73 97 0.0 0.0 0.00 0.00 0.00 91 1009.4
20190625045035 74 97 0.0 0.0 0.00 0.00 0.00 91 1009.4
20190625044553 74 97 0.0 1.0 0.00 0.00 0.00 91 1009.4
20190625044033 74 97 0.0 1.0 0.00 0.00 0.00 90 1009.6
20190625043530 74 41 0.0 0.0 0.00 0.00 0.00 90 1009.5
20190625043100 74 41 0.0 0.0 0.00 0.00 0.00 90 1009.5
20190625042529 74 41 0.0 0.0 0.00 0.00 0.00 90 1009.6
20190625042028 74 41 0.0 0.0 0.00 0.00 0.00 90 1009.7
20190625041556 74 41 0.0 1.0 0.00 0.00 0.00 90 1009.7
20190625041019 75 41 0.0 1.0 0.00 0.00 0.00 90 1009.6
20190625040526 75 41 0.0 1.0 0.00 0.00 0.00 90 1009.7
20190625040023 74 41 0.0 1.0 0.00 0.00 0.00 90 1009.8
20190625035518 74 41 0.0 0.0 0.00 0.00 0.00 89 1009.8
20190625035024 74 41 0.0 0.0 0.00 0.00 0.00 89 1009.8
20190625034615 74 41 0.0 0.0 0.00 0.00 0.00 88 1009.8
20190625034027 74 41 0.0 0.0 0.00 0.00 0.00 88 1009.7
20190625033519 75 41 0.0 0.0 0.00 0.00 0.00 89 1009.6
20190625033042 74 41 0.0 0.0 0.00 0.00 0.00 88 1009.7
20190625032516 74 41 0.0 0.0 0.00 0.00 0.00 87 1009.6
20190625032017 75 41 0.0 0.0 0.00 0.00 0.00 87 1009.7
20190625031546 75 41 0.0 0.0 0.00 0.00 0.00 87 1009.7
20190625031026 75 41 0.0 0.0 0.00 0.00 0.00 86 1009.8
20190625030524 75 41 0.0 0.0 0.00 0.00 0.00 86 1009.9
20190625030016 75 41 0.0 0.0 0.00 0.00 0.00 85 1009.9
20190625025526 76 41 0.0 0.0 0.00 0.00 0.00 85 1009.9
20190625025025 76 41 0.0 0.0 0.00 0.00 0.00 84 1010.0
20190625024526 76 41 0.0 0.0 0.00 0.00 0.00 84 1009.8
20190625024016 76 41 0.0 0.0 0.00 0.00 0.00 83 1009.9
20190625023519 76 41 0.0 0.0 0.00 0.00 0.00 83 1009.9
20190625023036 76 41 0.0 0.0 0.00 0.00 0.00 83 1010.0
20190625022514 76 41 0.0 0.0 0.00 0.00 0.00 82 1010.0
20190625022020 77 41 0.0 0.0 0.00 0.00 0.00 82 1009.8
20190625021537 77 41 0.0 0.0 0.00 0.00 0.00 81 1010.0
20190625021015 77 41 0.0 0.0 0.00 0.00 0.00 81 1010.1
20190625020514 77 41 0.0 0.0 0.00 0.00 0.00 81 1010.2
20190625020035 78 41 0.0 0.0 0.00 0.00 0.00 81 1010.2
20190625015522 78 41 0.0 0.0 0.00 0.00 0.00 81 1010.1
20190625015021 78 37 0.0 0.0 0.00 0.00 0.00 81 1010.2
20190625014545 77 37 0.0 0.0 0.00 0.00 0.00 80 1010.2
20190625014017 77 37 0.0 0.0 0.00 0.00 0.00 79 1010.0
20190625013512 78 37 0.0 0.0 0.00 0.00 0.00 79 1010.2
20190625013020 78 37 0.0 0.0 0.00 0.00 0.00 78 1010.2
20190625012512 78 37 0.0 0.0 0.00 0.00 0.00 78 1010.1
20190625012018 78 37 0.0 0.0 0.00 0.00 0.00 78 1010.0
20190625011539 78 37 0.0 0.0 0.00 0.00 0.00 78 1009.9
20190625011012 77 37 0.0 0.0 0.00 0.00 0.00 77 1009.8
20190625010514 78 37 0.0 0.0 0.00 0.00 0.00 77 1009.7
20190625010024 79 37 0.0 0.0 0.00 0.00 0.00 76 1009.7
20190625005511 79 37 0.0 1.0 0.00 0.00 0.00 76 1009.7
20190625005018 79 37 0.0 1.0 0.00 0.00 0.00 75 1009.6
20190625004519 80 56 0.0 0.0 0.00 0.00 0.00 75 1009.7
20190625003510 80 55 0.0 1.0 0.00 0.00 0.00 74 1009.6
20190625003015 80 54 0.0 1.0 0.00 0.00 0.00 73 1009.6
20190625002509 81 66 0.0 0.0 0.00 0.00 0.00 74 1009.6
20190625002009 81 67 0.0 1.0 0.00 0.00 0.00 74 1009.6
20190625001511 81 67 0.0 1.0 0.00 0.00 0.00 73 1009.7
20190625001008 82 346 0.0 1.0 0.00 0.00 0.00 73 1009.6
20190625000509 82 64 0.0 1.0 0.00 0.00 0.00 72 1009.6
20190625000015 82 63 0.0 1.0 0.00 0.00 0.00 71 1009.6
20190624235508 82 63 0.0 1.0 0.00 0.00 0.00 70 1009.5
20190624235010 82 11 0.0 1.0 0.00 0.00 0.00 69 1009.5
20190624234536 82 11 0.0 1.0 0.00 0.00 0.00 68 1009.4
20190624234014 82 354 0.0 1.0 0.00 0.00 0.00 68 1009.4
20190624233512 83 354 0.0 1.0 0.00 0.00 0.00 67 1009.5
20190624233024 83 22 0.0 2.0 0.00 0.00 0.00 66 1009.4
20190624232505 83 72 0.0 2.0 0.00 0.00 0.00 66 1009.6
20190624232010 83 146 0.0 2.0 0.00 0.00 0.00 66 1009.6
20190624231528 83 19 0.0 1.0 0.00 0.00 0.00 66 1009.7
20190624231007 83 34 0.0 1.0 0.00 0.00 0.00 68 1009.8
20190624230505 83 18 0.0 1.0 0.00 0.00 0.00 68 1009.7
20190624230009 83 358 0.0 1.0 0.00 0.00 0.00 67 1009.7
20190624225506 83 57 0.0 2.0 0.00 0.00 0.00 66 1009.7
20190624225005 83 47 0.0 2.0 0.00 0.00 0.00 66 1009.6
20190624224507 83 358 0.0 2.0 0.00 0.00 0.00 66 1009.6
20190624224008 83 63 0.0 1.0 0.00 0.00 0.00 66 1009.7
20190624223510 83 86 0.0 2.0 0.00 0.00 0.00 66 1009.7
20190624223004 83 30 0.0 2.0 0.00 0.00 0.00 65 1009.7
20190624222506 83 101 0.0 1.0 0.00 0.00 0.00 66 1009.7
20190624222003 83 101 0.0 1.0 0.00 0.00 0.00 65 1009.7
20190624221507 84 50 0.0 2.0 0.00 0.00 0.00 65 1009.7
20190624221002 84 120 0.0 3.0 0.00 0.00 0.00 64 1009.8
20190624220501 84 330 0.0 2.0 0.00 0.00 0.00 63 1009.8
20190624220002 84 83 0.0 1.0 0.00 0.00 0.00 64 1009.9
20190624215503 85 108 0.0 1.0 0.00 0.00 0.00 64 1009.8
20190624215102 85 39 0.0 2.0 0.00 0.00 0.00 63 1009.9
20190624214712 85 69 0.0 2.0 0.00 0.00 0.00 61 1010.1
20190624214058 85 360 0.0 2.0 0.00 0.00 0.00 61 1010.2
20190624213559 85 27 0.0 2.0 0.00 0.00 0.00 62 1010.2
20190624213150 85 321 0.0 2.0 0.00 0.00 0.00 63 1010.3
20190624212556 85 25 0.0 1.0 0.00 0.00 0.00 64 1010.3
20190624212107 85 25 0.0 1.0 0.00 0.00 0.00 63 1010.3
20190624211650 86 23 0.0 2.0 0.00 0.00 0.00 59 1010.4
20190624211105 86 6 0.0 2.0 0.00 0.00 0.00 59 1010.5
20190624210609 85 132 0.0 2.0 0.00 0.00 0.00 61 1010.5
20190624210141 85 44 0.0 2.0 0.00 0.00 0.00 59 1010.4
20190624205607 85 55 0.0 1.0 0.00 0.00 0.00 65 1010.4
20190624205054 85 33 0.0 1.0 0.00 0.00 0.00 66 1010.3
20190624204620 85 89 0.0 1.0 0.00 0.00 0.00 64 1010.5
20190624204053 85 63 0.0 1.0 0.00 0.00 0.00 64 1010.5
20190624203557 85 86 0.0 1.0 0.00 0.00 0.00 66 1010.5
20190624203220 85 100 0.0 0.0 0.00 0.00 0.00 66 1010.5
20190624202555 85 101 0.0 1.0 0.00 0.00 0.00 68 1010.6
20190624202051 85 105 0.0 2.0 0.00 0.00 0.00 66 1010.6
20190624201659 85 169 0.0 1.0 0.00 0.00 0.00 66 1010.6
20190624201050 84 101 0.0 1.0 0.00 0.00 0.00 68 1010.7
20190624200551 84 39 0.0 2.0 0.00 0.00 0.00 67 1010.6
20190624200130 84 58 0.0 2.0 0.00 0.00 0.00 66 1010.7
20190624195556 84 53 0.0 1.0 0.00 0.00 0.00 67 1010.7
20190624195054 84 113 0.0 2.0 0.00 0.00 0.00 66 1010.8
20190624194616 84 35 0.0 2.0 0.00 0.00 0.00 65 1010.9
20190624194105 85 77 0.0 2.0 0.00 0.00 0.00 65 1011.0
20190624193552 85 6 0.0 1.0 0.00 0.00 0.00 65 1011.0
20190624193059 85 321 0.0 1.0 0.00 0.00 0.00 65 1011.0
20190624192549 85 106 0.0 2.0 0.00 0.00 0.00 65 1010.9
20190624192048 85 217 0.0 2.0 0.00 0.00 0.00 65 1010.7
20190624191736 85 60 0.0 2.0 0.00 0.00 0.00 67 1010.8
20190624191055 85 77 0.0 2.0 0.00 0.00 0.00 64 1010.8
20190624190546 86 11 0.0 1.0 0.00 0.00 0.00 67 1010.8
20190624190125 85 11 0.0 2.0 0.00 0.00 0.00 68 1010.9
20190624185546 85 91 0.0 3.0 0.00 0.00 0.00 65 1010.9
20190624185045 86 65 0.0 4.0 0.00 0.00 0.00 64 1011.0
20190624184654 86 81 0.0 1.0 0.00 0.00 0.00 65 1010.9
20190624184044 85 17 0.0 3.0 0.00 0.00 0.00 66 1011.1
20190624183553 85 12 0.0 3.0 0.00 0.00 0.00 64 1011.1
20190624183125 85 36 0.0 4.0 0.00 0.00 0.00 66 1011.1
20190624182548 85 69 0.0 4.0 0.00 0.00 0.00 66 1011.1
20190624182045 85 83 0.0 3.0 0.00 0.00 0.00 63 1010.9
20190624181638 85 23 0.0 2.0 0.00 0.00 0.00 63 1011.1
20190624181042 85 18 0.0 3.0 0.00 0.00 0.00 62 1011.2
20190624180543 85 330 0.0 3.0 0.00 0.00 0.00 64 1011.2
20190624180110 84 6 0.0 3.0 0.00 0.00 0.00 65 1011.3
20190624175551 84 356 0.0 3.0 0.00 0.00 0.00 65 1011.3
20190624175040 84 37 0.0 2.0 0.00 0.00 0.00 66 1011.3
20190624174613 84 33 0.0 0.0 0.00 0.00 0.00 66 1011.4
20190624174040 84 77 0.0 1.0 0.00 0.00 0.00 64 1011.4
20190624173545 84 77 0.0 1.0 0.00 0.00 0.00 65 1011.4
20190624173056 84 347 0.0 1.0 0.00 0.00 0.00 65 1011.4
20190624172543 84 20 0.0 1.0 0.00 0.00 0.00 64 1011.4
20190624172037 84 27 0.0 0.0 0.00 0.00 0.00 64 1011.5
20190624171601 84 27 0.0 0.0 0.00 0.00 0.00 65 1011.5
20190624171041 84 27 0.0 1.0 0.00 0.00 0.00 63 1011.6
20190624170539 84 27 0.0 1.0 0.00 0.00 0.00 62 1011.7
20190624170117 84 26 0.0 1.0 0.00 0.00 0.00 59 1011.8
20190624165539 84 122 0.0 1.0 0.00 0.00 0.00 59 1011.8
20190624165035 84 60 0.0 2.0 0.00 0.00 0.00 59 1011.8
20190624164545 84 60 0.0 2.0 0.00 0.00 0.00 60 1011.9
20190624164034 84 97 0.0 3.0 0.00 0.00 0.00 60 1011.9
20190624163551 84 84 0.0 3.0 0.00 0.00 0.00 60 1011.9
20190624163212 84 51 0.0 2.0 0.00 0.00 0.00 60 1012.0
20190624162540 84 76 0.0 2.0 0.00 0.00 0.00 59 1012.0
20190624162035 85 37 0.0 1.0 0.00 0.00 0.00 57 1012.0
20190624161634 85 26 0.0 1.0 0.00 0.00 0.00 56 1012.1
20190624161030 85 135 0.0 1.0 0.00 0.00 0.00 53 1012.2
20190624160536 84 150 0.0 1.0 0.00 0.00 0.00 54 1012.2
20190624160108 84 88 0.0 1.0 0.00 0.00 0.00 61 1012.2
20190624155540 83 86 0.0 2.0 0.00 0.00 0.00 61 1012.3
20190624155029 83 46 0.0 2.0 0.00 0.00 0.00 57 1012.3
20190624154546 83 117 0.0 2.0 0.00 0.00 0.00 61 1012.4
20190624154029 83 75 0.0 1.0 0.00 0.00 0.00 60 1012.5
20190624153532 84 166 0.0 1.0 0.00 0.00 0.00 60 1012.4
20190624153100 85 57 0.0 1.0 0.00 0.00 0.00 59 1012.5
20190624152529 85 323 0.0 1.0 0.00 0.00 0.00 57 1012.5
20190624152030 86 129 0.0 1.0 0.00 0.00 0.00 56 1012.6
20190624151616 86 11 0.0 1.0 0.00 0.00 0.00 55 1012.7
20190624151030 86 84 0.0 1.0 0.00 0.00 0.00 55 1012.7
20190624150526 85 60 0.0 1.0 0.00 0.00 0.00 60 1012.7
20190624150039 85 94 0.0 1.0 0.00 0.00 0.00 66 1012.6
20190624145024 84 62 0.0 1.0 0.00 0.00 0.00 63 1012.6
20190624144621 84 62 0.0 1.0 0.00 0.00 0.00 62 1012.6
20190624144028 84 98 0.0 1.0 0.00 0.00 0.00 60 1012.7
20190624143527 84 99 0.0 2.0 0.00 0.00 0.00 63 1012.6
20190624143030 84 162 0.0 2.0 0.00 0.00 0.00 66 1012.5
20190624142521 84 183 0.0 2.0 0.00 0.00 0.00 67 1012.5
20190624142022 83 181 0.0 2.0 0.00 0.00 0.00 66 1012.4
20190624141534 83 61 0.0 1.0 0.00 0.00 0.00 70 1012.5
20190624141026 83 124 0.0 0.0 0.00 0.00 0.00 69 1012.5
20190624140528 83 82 0.0 0.0 0.00 0.00 0.00 67 1012.5
20190624140114 84 108 0.0 1.0 0.00 0.00 0.00 67 1012.5
20190624135524 83 108 0.0 1.0 0.00 0.00 0.00 70 1012.6
20190624135022 82 111 0.0 1.0 0.00 0.00 0.00 71 1012.7
20190624134621 81 127 0.0 1.0 0.00 0.00 0.00 69 1012.6
20190624134015 80 127 0.0 1.0 0.00 0.00 0.00 73 1012.7
20190624133514 79 150 0.0 1.0 0.00 0.00 0.00 73 1012.9
20190624133016 78 150 0.0 0.0 0.00 0.00 0.00 75 1012.9
20190624132517 76 79 0.0 1.0 0.00 0.00 0.00 77 1012.8
20190624132009 76 79 0.0 1.0 0.00 0.00 0.00 79 1012.9
20190624131523 75 119 0.0 0.0 0.00 0.00 0.00 81 1012.9
20190624131007 73 118 0.0 1.0 0.00 0.00 0.00 85 1013.0
20190624130505 72 118 0.0 1.0 0.00 0.00 0.00 86 1012.9
20190624130007 72 119 0.0 1.0 0.00 0.00 0.00 86 1012.9
20190624125503 71 108 0.0 1.0 0.00 0.00 0.00 88 1012.9
20190624125002 71 107 0.0 1.0 0.00 0.00 0.00 90 1013.0
20190624124809 70 6 0.0 1.0 0.00 0.00 0.00 90 1012.9
20190624124102 69 47 0.0 1.0 0.00 0.00 0.00 92 1012.9
20190624123223 68 25 0.0 1.0 0.00 0.00 0.00 95 1013.0
20190624122608 68 20 0.0 1.0 0.00 0.00 0.00 96 1013.0
20190624122055 67 20 0.0 1.0 0.00 0.00 0.00 96 1013.1
20190624121606 67 20 0.0 0.0 0.00 0.00 0.00 97 1013.1
20190624121052 67 20 0.0 0.0 0.00 0.00 0.00 98 1013.1
20190624120555 67 20 0.0 0.0 0.00 0.00 0.00 98 1013.1
20190624120104 66 20 0.0 1.0 0.00 0.00 0.00 98 1013.1
20190624115548 66 20 0.0 1.0 0.00 0.00 0.00 98 1013.1
20190624115051 65 20 0.0 0.0 0.00 0.00 0.00 98 1013.1
20190624114557 64 20 0.0 0.0 0.00 0.00 0.00 98 1013.1
20190624114054 64 20 0.0 0.0 0.00 0.00 0.00 98 1013.1
20190624113550 63 20 0.0 0.0 0.00 0.00 0.00 98 1013.1
20190624113130 63 20 0.0 0.0 0.00 0.00 0.00 98 1013.1
20190624112546 63 20 0.0 0.0 0.00 0.00 0.00 97 1013.1
20190624112043 62 20 0.0 0.0 0.00 0.00 0.00 97 1013.1
20190624111630 62 20 0.0 0.0 0.00 0.00 0.00 98 1013.2
20190624111043 62 20 0.0 0.0 0.00 0.00 0.00 97 1013.1
20190624110546 61 20 0.0 0.0 0.00 0.00 0.00 97 1013.1
20190624110139 61 20 0.0 0.0 0.00 0.00 0.00 97 1013.0
20190624105547 60 20 0.0 0.0 0.00 0.00 0.00 97 1013.0
20190624105048 60 20 0.0 0.0 0.00 0.00 0.00 97 1013.1
20190624104609 60 20 0.0 0.0 0.00 0.00 0.00 97 1012.9
20190624104509 60 20 0.0 0.0 0.00 0.00 0.00 97 1012.9
20190624104045 59 20 0.0 0.0 0.00 0.00 0.00 97 1013.0
20190624103144 59 20 0.0 0.0 0.00 0.00 0.00 97 1013.0
20190624102544 59 20 0.0 0.0 0.00 0.00 0.00 96 1013.0
20190624102039 59 20 0.0 0.0 0.00 0.00 0.00 96 1013.0
20190624101552 59 20 0.0 0.0 0.00 0.00 0.00 96 1013.0
20190624101042 58 20 0.0 0.0 0.00 0.00 0.00 96 1013.0
20190624100538 58 20 0.0 0.0 0.00 0.00 0.00 96 1013.1
20190624100057 58 20 0.0 0.0 0.00 0.00 0.00 96 1013.0
20190624095538 58 20 0.0 0.0 0.00 0.00 0.00 96 1012.9
20190624095038 58 20 0.0 0.0 0.00 0.00 0.00 96 1012.9
20190624094627 58 20 0.0 0.0 0.00 0.00 0.00 96 1012.8
20190624094037 59 20 0.0 0.0 0.00 0.00 0.00 96 1012.8
20190624093537 58 20 0.0 0.0 0.00 0.00 0.00 96 1012.7
20190624093042 58 20 0.0 0.0 0.00 0.00 0.00 95 1012.6
20190624092539 59 20 0.0 0.0 0.00 0.00 0.00 95 1012.6
20190624092037 59 20 0.0 0.0 0.00 0.00 0.00 95 1012.5
20190624091555 59 20 0.0 0.0 0.00 0.00 0.00 95 1012.6
20190624091035 59 20 0.0 0.0 0.00 0.00 0.00 95 1012.6
20190624090535 59 20 0.0 0.0 0.00 0.00 0.00 95 1012.5
20190624090103 59 20 0.0 0.0 0.00 0.00 0.00 95 1012.5
20190624085534 59 20 0.0 0.0 0.00 0.00 0.00 95 1012.4
20190624085037 59 20 0.0 0.0 0.00 0.00 0.00 95 1012.4
20190624084609 59 20 0.0 0.0 0.00 0.00 0.00 95 1012.4
20190624084035 59 20 0.0 0.0 0.00 0.00 0.00 95 1012.3
20190624083538 59 20 0.0 0.0 0.00 0.00 0.00 95 1012.3
20190624083122 59 20 0.0 0.0 0.00 0.00 0.00 95 1012.4
20190624082537 59 20 0.0 0.0 0.00 0.00 0.00 95 1012.4
20190624082032 59 20 0.0 0.0 0.00 0.00 0.00 95 1012.4